Location: Fredericksburg
(30.2750°N, 98.8720°W)
Time: 05:08:03
(UTC-05:00)

Daily predictions for brighter satellites

Satellite Brightness Start Highest point End
(mag) Time Altitude Azimuth Time Altitude Azimuth Time Altitude Azimuth
CZ-4C R/B 3.8 00:04:54 10° NNW 00:09:38 42° N 00:09:38 42° N
ATLAS 2AS CENTAUR R/B 4.4 01:39:38 31° NNW 01:39:38 31° NNW 01:44:50 10° NNE
CZ-2D R/B 4.2 03:15:18 10° NE 03:17:38 22° NE 03:17:38 22° NE
Lacrosse 5 rocket 4.3 03:32:38 17° NNE 03:32:38 17° NNE 03:33:46 10° NNE
VEP-3 4.3 02:33:04 10° WSW 03:31:29 64° S 03:39:01 10° E
Cosmos 2082 Rocket 4.2 03:41:03 20° E 03:41:03 20° E 03:45:00 10° NE
SL-16 R/B 2.9 03:53:54 61° NE 03:53:54 61° NE 03:59:34 10° N
Cosmos 1934 Rocket 4.2 03:54:13 10° N 04:00:18 66° ENE 04:00:18 66° ENE
CZ-3 R/B 4.4 04:09:40 33° SSW 04:17:28 39° SSE 04:27:22 10° E
Cosmos-2242 4.4 04:16:09 10° N 04:19:41 38° ENE 04:19:41 38° ENE
UNKNOWN OBJECT B 4.3 04:33:47 10° N 04:36:05 33° N 04:36:05 33° N
Resurs 1-4 Rocket 3.2 04:37:38 10° N 04:41:09 31° NW 04:41:09 31° NW
CZ-2D R/B 4.4 04:45:23 10° N 04:48:01 38° NNW 04:48:01 38° NNW
Meteor 2-15 4.3 04:48:06 57° SSW 04:49:23 78° W 04:55:32 10° N
ADEOS Rocket 3.9 04:49:02 10° N 04:54:38 35° WNW 04:55:00 34° WNW
USA 267 3.2 04:51:44 10° SE 04:58:16 83° NE 05:04:50 10° NW
Meteor 2-15 Rocket 4.3 04:56:46 44° SSW 04:58:49 78° W 05:04:59 10° N
DNEPR-1 R/B 4.1 04:55:02 10° NNW 04:59:15 60° ENE 05:03:56 10° SE
CZ-2D R/B 3.5 04:55:41 10° NNW 04:58:58 23° NW 04:58:58 23° NW
ARIANE 5 R/B 4.0 04:57:02 10° NNW 05:00:14 22° NW 05:00:14 22° NW
CENTAUR R/B 3.0 04:54:22 10° NNW 05:02:30 72° WSW 05:10:54 10° SSE
PSLV R/B 4.3 04:59:00 10° NNE 05:03:04 60° E 05:04:19 40° SSE
Cosmos 1727 Rocket 4.2 05:03:15 44° WSW 05:04:09 47° W 05:10:05 10° N
Cosmos 2278 3.9 04:59:18 10° NNW 05:05:00 73° ENE 05:10:41 10° SSE
Cosmos 1452 Rocket 3.4 05:02:18 10° NNW 05:07:34 84° WSW 05:12:49 10° SSE
OE (NEXTSAT) 4.5 05:11:14 68° NNW 05:11:14 68° NNW 05:14:35 10° NE
Cosmos 2369 3.7 05:07:35 10° NNW 05:13:21 85° ENE 05:19:03 10° SSE
Okean 3 Rocket 4.4 05:12:19 14° SSE 05:15:55 48° E 05:20:11 10° NNE
Cosmos 1153 Rocket 4.5 05:14:39 10° NNW 05:20:37 56° W 05:25:02 19° SSW
Cosmos 1833 Rocket 2.9 05:19:37 37° WSW 05:21:23 50° WNW 05:26:50 10° N
Cosmos 1048 Rocket 4.1 05:20:29 39° WSW 05:21:56 51° WNW 05:26:55 10° N
Cosmos 1420 Rocket 4.0 05:16:59 10° NNW 05:22:18 83° ENE 05:27:34 10° SSE
Cosmos 1656 3.9 05:18:25 10° NNW 05:23:49 70° ENE 05:29:13 10° SSE
Cosmos 2082 Rocket 2.7 05:22:55 33° WSW 05:24:42 43° WNW 05:30:07 10° N
Meteor 2-5 Rocket 4.3 05:25:21 32° WSW 05:26:50 37° WNW 05:32:10 10° N
MOS 1 Rocket 4.0 05:24:48 10° NNW 05:28:42 31° WNW 05:29:17 30° W
Cosmos 1980 Rocket 4.2 05:25:03 10° N 05:30:00 30° ENE 05:34:55 10° SE
Cosmos 1076 Rocket 4.4 05:28:32 10° SSE 05:32:36 48° E 05:36:41 10° NNE
Landsat 4 3.7 05:31:15 32° SSW 05:32:40 53° W 05:36:20 10° NNW
KM-V1 4.1 05:34:15 36° WNW 05:35:26 78° N 05:40:51 10° E
Okean O Rocket 1.6 05:32:28 10° N 05:36:51 65° WNW 05:39:39 21° SSW
IRS-1C Rocket 4.0 05:31:36 10° NNE 05:36:52 86° WNW 05:42:00 11° SSW
CZ-4B R/B 3.1 05:32:55 10° N 05:37:17 64° WNW 05:40:15 21° SSW
SL-16 R/B 4.2 05:38:59 14° WNW 05:38:59 14° WNW 05:40:43 10° WNW
Cosmos 1459 Rocket 3.9 05:32:19 10° N 05:38:30 74° W 05:44:46 10° S
Cosmos 1802 Rocket 4.0 05:32:37 10° N 05:39:04 87° W 05:45:25 10° S
CZ-4B R/B 3.0 05:35:07 10° NNE 05:40:27 84° WNW 05:45:44 10° SSW
ADEOS II 2.1 05:39:33 10° N 05:44:44 62° WNW 05:49:26 13° SSW
PAYLOAD B 4.3 05:44:16 10° N 05:49:44 61° WNW 05:55:09 10° SSW
Tiangong 1 1.5 05:47:16 10° NW 05:49:57 52° NNE 05:52:43 10° ESE
Meteor 2-1 Rocket 4.2 05:44:33 10° N 05:50:16 77° W 05:56:03 10° S
Cosmos 1725 Rocket 4.5 05:44:41 10° N 05:50:56 65° E 05:57:10 10° SSE
IUS-18 SRM-1 1.6 05:51:29 34° SW 05:51:49 38° S 05:53:56 10° ESE
Meteor 1-31 Rocket 3.7 05:50:17 10° NNE 05:54:07 50° E 05:57:55 10° S
Cosmos 1408 Rocket 4.1 05:50:18 10° S 05:54:41 61° E 05:59:05 10° NNE
Meteor 2-17 Rocket 4.4 05:51:23 10° NNW 05:57:20 61° W 06:03:16 10° S
Delta 2 Rocket 3.1 05:54:22 12° WNW 05:57:26 64° NNE 06:00:46 10° E
Cosmos 1908 4.4 05:54:38 10° N 05:58:21 46° E 06:02:05 10° SSE
Cosmos 2251 Rocket 3.5 05:55:33 10° SSW 06:00:48 86° WNW 06:06:09 10° NNE
SL-08 R/B 4.4 05:54:54 10° N 06:01:00 84° W 06:07:04 10° S
TSX-5 4.2 05:57:39 10° SSW 06:01:35 82° ESE 06:06:46 10° NNE
Yuri Rocket 4.0 05:58:10 17° WSW 06:02:29 67° S 06:10:02 10° E
Delta 2 Rocket 4.1 06:01:10 15° WSW 06:06:06 61° S 06:12:30 10° E
PSLV R/B 4.3 06:04:50 10° N 06:08:46 34° WNW 06:12:39 10° SW
Aurora 2 Rocket 4.0 06:06:12 10° SSW 06:08:59 18° S 06:11:24 10° ESE
SL-24 R/B 4.5 06:05:58 10° N 06:10:10 43° WNW 06:14:10 10° SW
Cosmos 2221 2.7 06:13:16 10° NNW 06:17:21 46° W 06:21:25 10° SSW
Cosmos 1356 Rocket 4.4 06:14:06 10° S 06:18:04 50° E 06:21:59 10° NNE
GPS 2-05 Rocket1 4.3 06:15:25 10° WNW 06:18:37 32° N 06:21:45 10° ENE
Delta 128 4.1 06:19:13 10° WSW 06:24:00 64° S 06:29:35 10° E
Cosmos 2360 4.4 06:23:33 10° NNW 06:29:17 85° ENE 06:34:59 10° SSE
